Tracking 31027 objects as of 19-Jul-2025
HD Live streaming from Space Station
objects crossing your sky now

STARLINK-6219

Track STARLINK-6219 now!
10-day predictions
STARLINK-6219 is classified as:


NORAD ID: 56892
Int'l Code: 2023-083S
Perigee: 565.2 km
Apogee: 567.2 km
Inclination: 43.0 °
Period: 95.8 minutes
Semi major axis: 6937 km
RCS: Unknown
Launch date: June 12, 2023
Source: United States (US)
Launch site: AIR FORCE EASTERN TEST RANGE (AFETR)
Your satellite tracking list
GALASSIA
Track 1 satellite(s)




NASA's NSSDC Master Catalog

Two Line Element Set (TLE):
1 56892U 23083S   25199.55900090  .00000139  00000-0  25371-4 0  9995
2 56892  43.0032 273.7566 0001472 270.5789  89.4884 15.02534355116453
Source of the keplerian elements: AFSPC